USA 283

Last updated on Fri Oct 04 2024 00:02:41 GMT+0000 (Coordinated Universal Time)

1 43339U 18036A 24277.49385156 -.00000312 00000+0 00000+0 0 9998 2 43339 0.0213 206.5921 0000145 221.4388 256.5291 1.00269463 19059
UTC large
Height (km)
Speed (km/s)
/
Latitude / Longitude
Inclination (degrees)
Orbital Period (minutes)
Azimuth
Elevation
Range (km)
Doppler Factor

Next 0 passes for location: London (51.5072 / 0.1276)

Sorry there are no passes over London.